Theta_e
305 304 304 303 302 302 302 301 302 302 301 301 301 301 301 302 306 305 306 307 307 307 308 316 313 311 318 319 314 318 326 327 328 325 332 335 335 334 333 336 339 348 352 354 353 352 352
303 303 304 303 303 302 302 302 302 301 301 301 301 301 301 303 306 306 306 306 306 307 312 315 312 312 319 316 315 318 326 326 322 323 331 329 330 329 329 331 334 339 341 348 352 354 352
303 303 303 303 302 302 302 301 301 301 301 301 300 300 301 306 306 306 307 306 307 308 315 313 316 318 319 318 317 317 325 325 327 325 329 326 327 328 326 329 333 334 342 342 346 353 354
303 303 302 302 302 301 301 301 301 301 301 301 300 300 301 309 307 307 307 307 310 314 311 316 318 321 318 315 317 316 320 325 329 328 325 327 324 328 325 325 324 328 331 339 345 350 351
301 302 301 301 301 301 301 301 301 301 301 301 300 300 301 310 307 307 307 311 314 310 314 319 323 320 315 312 313 312 314 324 326 323 324 324 323 327 328 324 323 325 329 333 353 350 351
301 301 301 301 301 301 301 300 300 301 301 300 299 300 301 310 307 308 308 309 309 319 319 320 319 320 313 313 312 312 315 323 326 325 320 321 323 324 324 324 326 326 328 332 348 351 351
301 301 301 301 301 301 300 300 300 301 300 300 301 301 302 310 307 308 311 311 317 314 313 312 312 312 312 312 313 315 320 324 324 328 322 320 323 323 323 323 324 326 328 330 341 348 352
301 301 301 301 301 300 300 300 300 300 300 304 306 304 302 309 307 308 311 313 312 311 314 311 310 311 310 310 314 314 319 325 323 325 322 320 320 322 323 322 322 323 329 332 332 343 351
301 301 301 301 301 300 300 300 300 301 305 306 307 306 302 309 306 310 311 310 310 310 313 312 311 311 311 311 313 313 317 322 326 324 322 322 322 320 320 322 322 322 324 329 332 335 342
302 301 301 301 301 301 301 300 301 305 305 305 306 306 303 309 308 311 311 310 310 310 313 312 311 310 311 311 312 312 316 317 322 327 325 323 323 321 320 321 321 322 321 322 329 334 341
304 302 302 301 301 301 300 301 305 305 305 306 306 306 305 309 312 313 311 310 309 308 312 310 311 310 311 312 312 313 316 318 319 321 326 326 324 324 322 322 321 321 321 321 322 330 334
305 303 302 302 301 300 300 305 305 305 305 306 307 305 309 311 312 310 310 309 308 313 312 311 311 310 312 312 311 313 315 317 319 320 322 324 325 325 325 324 322 322 321 321 321 321 330
308 303 302 301 300 300 304 305 306 306 306 306 307 306 309 310 312 309 310 310 314 313 311 312 312 311 311 312 311 313 315 316 317 318 319 321 322 324 325 325 325 322 323 326 325 322 320
308 304 302 300 300 302 305 306 307 307 307 306 306 307 308 308 309 309 311 315 316 313 312 310 310 311 311 311 311 311 313 314 316 316 317 320 320 320 323 326 326 324 325 326 328 326 323
307 304 301 300 301 305 306 307 307 307 307 306 305 310 311 310 308 308 315 318 316 313 312 312 311 312 312 310 311 311 312 313 315 315 316 319 319 322 323 323 326 327 327 325 326 327 327
307 304 301 301 304 306 307 307 306 306 306 306 307 311 310 309 308 311 316 314 314 312 312 312 313 312 313 312 311 312 312 314 315 313 313 315 315 318 322 322 324 326 327 327 327 329 331
305 303 302 304 307 308 307 307 306 306 306 306 308 315 309 309 309 315 317 315 313 312 312 313 313 313 313 312 311 312 312 312 313 313 313 313 313 314 315 322 323 325 327 328 327 327 329
303 303 305 308 308 307 307 307 306 306 305 309 309 314 309 310 315 314 315 312 307 312 311 312 312 312 312 312 312 312 311 311 311 312 312 313 313 315 314 316 323 323 326 327 330 331 328
303 304 308 308 307 307 307 306 306 306 305 308 311 311 309 312 316 314 312 311 311 311 312 312 312 311 310 311 312 311 311 311 312 311 312 314 312 314 314 313 315 319 323 327 327 329 332
304 305 308 308 307 307 307 307 306 306 305 308 312 316 313 312 311 312 312 312 312 310 311 311 312 311 312 312 312 312 311 310 312 311 313 312 310 313 314 314 314 320 324 324 326 330 331
304 304 308 307 307 307 307 307 307 306 305 308 312 312 310 314 311 312 311 312 312 311 310 310 312 311 311 312 311 311 311 310 310 310 312 313 313 312 311 310 310 312 314 317 321 326 330
303 305 307 307 307 307 307 307 307 306 307 310 314 313 311 309 310 310 311 311 311 311 310 311 311 311 312 314 312 313 311 311 311 310 312 313 314 311 311 310 309 309 311 314 316 322 324
302 306 307 306 307 307 307 307 307 306 308 310 309 308 311 309 311 313 312 311 312 311 311 310 310 311 311 311 311 310 310 310 311 311 313 312 312 312 311 309 311 313 314 317 318 320 322
304 307 307 306 307 307 307 307 307 307 307 309 309 310 311 312 312 312 311 312 311 310 312 310 308 310 309 310 310 310 310 310 310 310 309 312 313 312 311 311 311 310 313 317 318 321 322
307 307 307 307 307 307 307 307 307 307 307 310 310 309 311 314 312 311 311 311 309 310 310 310 309 310 310 310 312 311 310 310 310 310 310 309 313 311 311 311 310 315 322 323 324 321 324
307 307 307 307 307 307 307 308 308 307 307 310 310 309 309 314 313 311 311 310 311 311 312 309 309 308 309 310 313 313 315 313 313 312 309 309 311 314 312 313 316 321 317 316 320 331 324
306 307 306 306 307 307 307 307 308 308 308 310 310 309 310 315 313 311 312 311 311 311 311 311 310 310 308 311 313 315 315 314 314 314 312 313 313 315 313 313 314 316 315 315 328 327 322
307 307 306 306 307 307 308 308 308 308 308 310 309 310 311 314 313 311 310 311 311 311 312 311 312 310 309 312 314 314 315 313 315 312 312 313 315 314 314 314 316 315 316 318 317 318 317
307 307 306 307 307 308 308 308 308 308 308 309 311 308 307 309 314 311 310 310 309 309 310 312 312 311 308 309 311 311 313 312 314 318 312 313 313 315 314 315 315 313 313 312 313 316 317
Wind_Speed
19 20 20 21 22 24 25 27 28 30 31 31 31 32 33 32 28 23 19 17 16 17 10 6 7 3 2 5 2 9 11 2 29 27 27 21 20 18 16 14 8 17 9 5 7 5 5
20 20 21 21 23 25 26 28 29 30 31 31 32 33 34 32 26 20 21 21 21 13 5 4 4 4 4 3 3 9 5 14 24 27 25 22 15 16 9 8 16 3 16 12 5 10 7
20 20 21 21 23 25 27 28 29 30 31 32 32 34 35 32 23 21 22 19 12 6 3 3 3 2 4 6 2 6 4 11 18 22 20 21 8 16 5 10 11 13 9 9 16 14 8
20 20 21 22 24 26 27 28 29 30 32 33 32 34 36 31 21 19 20 12 7 5 4 5 4 3 5 2 2 3 4 13 16 8 18 12 9 17 7 2 6 15 15 14 16 16 9
20 21 22 23 24 26 27 28 29 30 31 33 33 34 35 29 17 18 14 6 5 7 5 5 2 6 5 1 1 2 3 11 16 10 9 11 10 11 14 12 11 13 14 18 12 15 10
20 21 23 24 25 26 28 29 29 30 31 33 33 34 34 27 13 16 14 3 4 4 3 4 5 5 9 7 5 1 4 14 12 15 9 15 10 12 13 15 15 16 18 14 17 15 18
20 21 22 22 23 26 28 29 29 30 30 33 33 32 32 25 9 11 12 5 4 5 3 5 5 3 5 6 4 6 9 9 10 18 14 14 15 20 20 18 17 8 12 18 14 11 15
21 22 22 22 24 26 27 28 29 30 31 33 33 31 29 23 3 8 9 5 6 5 4 2 1 2 2 2 2 9 7 7 11 15 16 12 19 18 16 14 14 16 12 14 14 10 9
21 21 22 23 24 25 27 28 29 31 31 32 32 31 26 18 1 4 7 7 6 2 6 6 1 2 4 4 4 9 4 2 11 16 18 18 5 19 15 15 17 19 19 12 14 12 9
22 22 23 23 23 24 26 28 28 30 31 33 33 32 21 7 3 4 1 10 9 7 5 9 6 3 2 1 3 6 5 5 7 12 15 17 20 7 18 20 18 20 18 16 13 11 14
21 22 23 23 24 25 26 28 28 31 32 33 34 30 11 4 4 3 9 12 0 5 5 4 4 3 2 1 3 4 4 4 10 9 10 11 12 19 17 17 20 16 14 14 17 15 15
21 22 22 23 24 25 26 28 29 32 34 34 32 22 4 2 1 6 12 5 5 6 3 5 2 0 3 3 2 3 2 1 2 9 14 17 6 14 23 18 11 13 16 14 15 16 18
19 21 22 23 24 25 27 29 31 34 35 34 32 7 7 6 6 14 9 5 5 6 2 4 1 1 1 3 2 4 3 3 5 8 15 17 17 17 14 17 20 17 17 10 11 14 21
18 19 21 23 24 26 27 29 32 34 35 34 26 5 6 5 15 9 6 6 6 4 2 2 2 2 5 1 3 1 3 5 3 6 10 9 14 20 18 21 19 23 21 12 20 16 19
16 18 20 22 24 26 28 29 32 33 34 34 14 2 6 16 10 4 7 7 6 2 4 4 6 8 6 4 5 4 2 4 1 4 6 5 12 3 7 14 20 20 23 25 25 16 16
15 17 19 21 23 26 27 28 31 33 34 29 6 3 13 19 6 6 6 4 1 3 5 4 7 1 5 7 5 3 2 5 4 1 5 3 8 8 4 7 19 20 17 21 18 22 22
15 18 19 21 22 24 25 27 29 32 34 17 3 3 16 17 5 4 3 4 1 3 6 4 6 8 8 7 6 9 4 5 3 4 4 5 6 6 5 12 19 17 22 18 20 18 19
16 18 19 21 22 23 24 24 25 29 34 13 4 1 20 13 0 2 4 4 1 4 3 4 6 9 11 9 9 8 7 4 3 3 6 3 6 12 17 14 8 14 14 27 16 28 22
17 19 20 20 22 22 22 22 23 25 26 11 3 3 13 8 3 5 5 5 2 4 4 3 3 3 2 8 5 8 9 1 5 7 4 4 6 9 16 18 18 17 16 19 19 22 26
18 20 20 20 21 21 20 20 20 22 23 7 3 0 4 8 7 9 2 5 3 3 4 6 8 7 8 10 10 6 6 5 7 10 4 2 12 11 13 10 10 5 10 7 17 18 21
19 21 20 20 20 18 18 17 18 20 18 5 4 4 4 5 8 7 4 5 4 5 5 10 4 5 9 6 9 12 13 11 9 7 9 7 14 13 14 15 14 16 18 17 19 18 22
21 19 19 19 18 16 15 14 15 18 12 4 3 2 5 2 3 3 8 7 5 6 3 6 5 8 9 10 10 13 10 11 13 10 13 11 13 11 15 17 18 20 21 20 21 20 19
21 19 19 17 15 14 13 12 12 13 10 5 6 6 1 1 4 4 3 3 5 9 4 8 11 7 10 12 14 10 13 15 12 8 13 12 11 11 15 13 11 16 22 22 22 20 20
20 17 16 15 13 12 10 9 9 8 9 6 6 3 2 5 5 6 5 8 10 7 7 5 6 7 8 8 12 17 20 18 18 15 13 8 11 12 11 10 15 11 16 15 26 20 21
19 16 14 13 12 11 8 6 6 4 5 6 4 2 1 5 7 10 12 9 4 7 5 3 3 6 9 12 10 10 11 13 20 21 19 16 9 7 10 11 14 12 10 10 12 20 9
17 14 13 12 11 9 6 4 3 2 4 5 4 4 1 1 10 8 7 6 4 6 4 2 5 5 6 4 3 4 3 2 3 4 22 17 17 7 11 5 12 7 9 16 10 8 8
15 14 13 11 9 7 4 2 3 2 3 4 3 1 1 2 8 8 6 3 5 4 4 6 7 3 3 2 3 3 2 1 3 4 9 8 6 13 13 9 9 5 7 11 7 2 6
14 13 12 10 7 5 4 3 3 3 3 4 3 1 3 3 5 5 4 6 5 4 3 8 3 2 2 2 3 3 3 1 3 3 9 10 9 9 11 12 14 8 0 4 6 16 8
14 12 10 7 5 3 3 2 3 4 5 5 2 2 2 2 4 1 3 4 3 5 3 6 4 4 1 2 1 3 2 3 4 2 3 5 1 3 4 5 9 5 11 11 11 12 11
Wind_Direction
27 28 27 25 21 17 15 13 10 7 6 5 360 358 355 354 349 349 349 341 333 322 329 315 313 324 135 209 63 345 2 162 169 176 186 183 190 198 211 212 215 231 254 243 215 188 161
27 25 22 19 16 13 10 8 7 4 2 1 359 357 353 351 348 350 342 335 323 325 339 315 304 149 235 186 2 5 47 143 168 181 186 191 199 208 245 220 218 203 241 251 218 204 190
23 20 17 14 11 8 6 4 3 1 360 0 357 355 353 351 346 346 342 339 333 352 0 54 104 153 218 64 25 7 83 170 173 186 189 196 223 199 219 219 228 237 262 222 229 225 229
13 11 10 8 5 3 1 1 0 360 357 357 357 353 352 351 346 346 344 352 6 55 10 126 94 270 77 54 318 71 96 151 176 196 198 190 230 217 235 4 216 224 230 250 207 196 210
4 2 2 1 359 358 358 358 358 358 355 355 355 353 352 351 347 347 352 8 19 19 76 75 275 276 84 329 357 84 144 168 170 169 196 188 207 212 209 232 222 204 221 214 166 193 189
358 356 356 356 355 355 355 356 356 355 354 354 354 352 351 350 349 353 346 359 337 15 348 246 267 229 57 30 48 53 142 148 157 174 178 196 211 210 218 211 212 209 221 214 220 183 208
353 352 353 354 353 352 353 353 354 354 353 353 353 350 349 349 353 6 9 293 240 180 27 6 11 30 64 11 33 70 152 173 172 179 193 195 208 214 214 219 244 309 242 229 210 203 209
351 350 350 352 350 350 351 351 352 352 353 351 352 351 347 347 10 17 14 55 51 339 292 117 298 263 18 357 167 59 174 204 174 187 199 187 227 222 233 222 232 241 241 233 240 205 208
348 347 349 349 348 349 348 351 352 351 352 351 351 349 343 345 112 24 41 53 336 269 252 164 67 347 22 300 51 33 322 209 215 215 201 214 228 220 220 224 221 229 232 229 238 203 217
344 345 349 348 348 349 348 351 351 348 350 349 348 346 337 350 202 348 60 337 326 192 257 137 185 80 341 221 130 28 16 288 221 228 212 234 239 208 213 224 214 232 220 240 247 249 233
341 344 346 346 347 348 348 349 349 347 348 348 347 344 332 354 338 352 325 326 291 207 252 93 118 25 350 343 12 66 13 227 260 220 218 217 221 220 220 227 220 242 243 220 236 247 261
339 343 344 345 346 347 348 348 348 348 347 346 347 344 3 15 248 352 328 319 201 224 197 125 116 355 202 64 82 1 10 231 314 269 230 257 239 243 227 228 227 221 231 233 230 238 240
339 342 344 345 346 347 348 347 347 348 347 345 348 16 37 18 345 324 319 233 231 255 105 114 93 314 11 51 86 9 13 53 287 242 224 220 235 230 242 225 215 210 204 210 210 215 234
341 343 344 344 345 347 348 347 346 346 345 344 348 121 4 8 327 306 262 241 250 46 341 80 275 251 281 290 150 296 241 229 124 278 281 259 227 216 206 229 211 215 217 218 217 212 228
343 345 345 344 346 347 348 347 343 343 345 344 359 219 351 344 334 284 246 235 9 16 2 296 260 266 198 199 282 255 241 292 334 328 260 278 235 39 290 234 237 207 222 231 255 237 246
350 347 346 345 346 347 347 348 345 344 347 346 338 210 19 345 329 236 241 42 48 23 330 270 277 221 261 189 259 201 204 119 144 357 313 88 269 246 243 279 252 254 236 218 234 237 238
351 348 346 346 346 346 349 348 347 346 350 7 276 209 2 345 282 240 308 48 5 30 342 296 298 279 274 284 258 279 294 133 258 154 278 290 242 213 247 219 228 215 237 243 234 226 234
352 348 347 347 345 348 348 350 351 351 354 4 308 161 356 339 106 20 44 4 335 358 3 303 288 281 282 293 270 257 260 275 80 271 250 233 288 256 250 252 291 300 277 222 231 222 234
353 347 346 346 347 348 349 351 352 354 360 335 23 26 12 353 44 63 85 67 5 339 341 324 275 251 250 263 258 242 264 316 197 236 258 177 235 260 240 236 242 251 248 249 250 247 225
352 346 344 345 347 348 351 351 353 354 356 355 294 151 77 69 59 65 44 38 9 10 321 317 295 273 269 259 247 266 250 207 227 250 82 270 262 255 274 355 351 282 267 280 261 242 243
350 346 343 345 350 352 353 353 355 354 360 344 352 56 349 31 47 29 23 359 359 16 353 321 260 276 302 276 268 253 253 246 217 202 221 249 258 258 264 282 276 267 261 257 260 260 254
346 345 342 347 352 355 354 358 359 359 16 27 23 46 75 102 39 4 29 18 334 348 281 291 274 304 328 279 279 291 313 275 260 243 225 233 259 266 269 270 264 263 257 247 249 250 256
344 346 345 349 355 355 359 1 9 15 18 56 61 77 247 32 34 354 38 326 306 322 237 256 308 297 270 257 270 268 280 275 241 248 247 235 254 247 261 265 274 269 246 241 239 230 233
342 346 347 350 354 358 1 360 11 23 46 61 64 97 107 55 49 9 325 316 0 348 288 252 248 245 234 267 287 269 258 246 243 235 244 249 247 261 263 283 247 255 259 246 227 226 227
342 346 352 353 356 356 3 6 16 28 58 71 72 53 7 61 27 20 356 358 8 332 347 326 322 287 292 290 278 271 249 237 233 232 222 215 231 266 249 248 264 284 23 354 357 224 202
344 344 355 357 356 357 8 15 34 39 84 93 86 82 101 293 29 358 359 317 351 326 340 328 339 307 326 300 271 258 270 255 268 262 211 203 211 230 276 263 252 59 340 340 314 229 179
346 345 355 2 4 14 31 48 101 94 110 102 104 106 343 12 55 21 20 340 333 292 296 294 345 35 10 287 255 264 297 7 228 193 174 185 191 224 231 247 272 42 344 326 229 77 1
346 347 356 7 26 38 68 120 165 159 151 122 115 143 355 8 60 19 30 350 342 9 315 332 260 73 297 270 289 354 295 97 267 208 168 182 195 202 231 243 254 27 337 240 340 316 349
347 347 357 18 39 53 107 143 189 183 176 141 131 122 206 254 352 344 328 316 317 314 307 313 359 25 353 292 303 299 313 314 326 148 335 237 239 266 271 223 359 335 283 269 278 289 308